Regional Weather Roundup
Issued by NWS

Home | Current Version | Previous Version | Graphics & Text | Print | Product List | Glossary On
Versions: 1 2 3 4 5 6 7 8 9 10 11 12 13 14 15 16 17 18 19 20 21 22 23 24 25 26 27 28 29 30 31 32 33 34 35 36 37 38 39 40 41 42 43 44 45 46 47 48 49 50
000
ASUS43 KLMK 231802
RWRKY
KENTUCKY REGIONAL WEATHER ROUNDUP
NATIONAL WEATHER SERVICE LOUISVILLE KY
200 PM EDT MON APR 23 2018

NOTE "FAIR" INDICATES FEW OR NO CLOUDS BELOW 12,000 FEET
WITH NO SIGNIFICANT WEATHER AND/OR OBSTRUCTIONS TO VISIBILITY.

KYZ001>023-026-027-061>063-070>075-231900-
WESTERN AND SOUTH CENTRAL KENTUCKY

CITY           SKY/WX    TMP DP  RH WIND       PRES   REMARKS
PADUCAH        CLOUDY    64  60  87 VRB5      29.88S
HENDERSON      CLOUDY    62  56  80 SE8       29.95F
OWENSBORO      CLOUDY    63  55  75 SE10      29.96F
HOPKINSVILLE   LGT RAIN  64  61  88 E14       29.90S
BOWLING GREEN  LGT RAIN  66  57  72 SE12      29.95F
GLASGOW        NOT AVBL
$$

KYZ024-025-028>034-038-045-046-053-231900-
NORTH CENTRAL KENTUCKY

CITY           SKY/WX    TMP DP  RH WIND       PRES   REMARKS
LOUISVILLE/SDF CLOUDY    60  55  83 E12       30.02F
LOUISVILLE/LOU LGT RAIN  59  57  93 E8        30.03F
FORT KNOX      CLOUDY    59  58  94 E12       30.01F
$$

KYZ035>037-039>044-047>052-055>060-089>105-231900-
NORTHEAST KENTUCKY

CITY           SKY/WX    TMP DP  RH WIND       PRES   REMARKS
LEXINGTON      CLOUDY    60  54  80 E17G25    30.07F
COVINGTON      LGT RAIN  54  53  97 E13       30.11F FOG
FRANKFORT      CLOUDY    59  53  80 E10       30.05F
$$

KYZ054-064>069-076>088-106>120-231900-
SOUTHEAST KENTUCKY

CITY           SKY/WX    TMP DP  RH WIND       PRES   REMARKS
JACKSON        LGT RAIN  56  50  80 VRB6G20   30.12F
LONDON         PTSUNNY   61  52  72 SE18G31   30.05F
SOMERSET       NOT AVBL
MIDDLESBORO    RAIN      55  52  91 SE6G17    30.11F
MONTICELLO     LGT RAIN  62  53  72 E8        30.02F
$$





USA.gov is the U.S. government's official web portal to all federal, state and local government web resources and services.